Overview Statistics Trail Chart Weather Telemetry Raw packets
 

This is the latest recevied weather packets stored in our database for station/object KB9HUO. If no packets are shown the sender has not sent any weather packets the latest 10 day(s).

<< 46 47 48 49 50 51 52 >>
Time Temp. Humidity Pressure Rain* Wind** Luminosity Snow
1788356217 26.67° C 86% 1020 hPa 0 mm - 41 W/m² -
1788355917 26.67° C 89% 1020.2 hPa 0 mm - 39 W/m² -
1788355612 26.11° C 94% 1020.3 hPa 0 mm - 38 W/m² -
1788355308 25° C 98% 1020.4 hPa 0 mm - 37 W/m² -
1788355003 25° C 99% 1020.2 hPa 0 mm - 35 W/m² -
1788354698 24.44° C 99% 1020.3 hPa 0 mm - 34 W/m² -
1788354394 23.89° C 99% 1020.4 hPa 0 mm - 32 W/m² -
1788354089 23.89° C 99% 1020.3 hPa 0 mm - 31 W/m² -
1788353785 23.33° C 99% 1020.4 hPa 0 mm - 30 W/m² -
1788353480 22.78° C 99% 1020.3 hPa 0 mm - 29 W/m² -
1788353177 22.78° C 99% 1020.2 hPa 0 mm - 28 W/m² -
1788352877 22.22° C 99% 1020.2 hPa 0 mm - 26 W/m² -
1788352573 22.22° C 99% 1020.1 hPa 0 mm - 25 W/m² -
1788352268 21.67° C 99% 1020 hPa 0 mm - 24 W/m² -
1788351967 21.67° C 99% 1020.1 hPa 0 mm - 23 W/m² -
1788351663 21.67° C 99% 1020.2 hPa 0 mm - 21 W/m² -
1788351362 21.11° C 99% 1020.1 hPa 0 mm - 20 W/m² -
1788351057 21.11° C 99% 1020 hPa 0 mm - 19 W/m² -
1788350753 21.11° C 99% 1020 hPa 0 mm - 17 W/m² -
1788350475 20.56° C 98% 1019.7 hPa 0 mm - 16 W/m² -
1788350144 20.56° C 98% 1019.6 hPa 0 mm - 14 W/m² -
1788349841 20.56° C 98% 1019.5 hPa 0 mm - 12 W/m² -
1788349536 20.56° C 98% 1019.5 hPa 0 mm - 11 W/m² -
1788349236 20.56° C 98% 1019.6 hPa 0 mm - 9 W/m² -
1788348932 20.56° C 98% 1019.4 hPa 0 mm - 7 W/m² -

* Rain latest hour (hover to see other rain measurements)
** Current wind speed in m/s (hover to see current wind gust speed)